Printer-friendly version

IAU Minor Planet Center

Minor Planet Center

MPEC 2000-L18: 2000 DM8

The following Minor Planet Electronic Circular may be linked-to from your own Web pages, but must not otherwise be redistributed electronically.


Read MPEC 2000-L17 Read MPEC 2000-L19


M.P.E.C. 2000-L18                                Issued 2000 June 5, 20:13 UT

     The Minor Planet Electronic Circulars contain information on unusual
         minor planets and routine data on comets.  They are published
   on behalf of Commission 20 of the International Astronomical Union by the
          Minor Planet Center, Smithsonian Astrophysical Observatory,
                          Cambridge, MA 02138, U.S.A.

             Prepared using the Tamkin Foundation Computer Network

             BMARSDEN@CFA.HARVARD.EDU or GWILLIAMS@CFA.HARVARD.EDU
          URL http://cfa-www.harvard.edu/iau/mpc.html  ISSN 1523-6714

                                   2000 DM8

                           Revision to MPEC 2000-E12

Observations:
     K00D08M 1 1984 03 06.0375  08 12 20.14 -53 38 38.2                      262
     K00D08M 1 1984 03 06.1208  08 11 26.08 -53 40 57.6                      262

Observer details:
262 European Southern Observatory, La Silla-DSS.  Trail located and measured
    by DANEOPS (A. Gnadig, M. Hoffmann).  1.2-m Schmidt.  Start time and
    exposure length are uncertain.

First and last observations above in comparison with prediction:
Residuals in seconds of arc (or two decimals in degrees), reference and Delta-T
840306 262 0.03+ 0.32+    840306 262 0.04+ 0.33+    MPO   711   +0.17 day

Orbital elements:
2000 DM8
Epoch 2000 Sept. 13.0 TT = JDT 2451800.5                Williams
M   9.62655              (2000.0)            P               Q
n   0.54534242     Peri.  317.87641     +0.31937072     +0.84159999
a   1.4837356      Node   323.26067     -0.55079946     -0.20915551
e   0.5545722      Incl.   46.73122     -0.77111757     +0.49795926
P   1.81           H   14.6           G   0.15           U   4
Residuals in seconds of arc
840306 262  0.2-  0.0     000228 595  0.4+  0.0     000304 595  0.1-  1.5-
840306 262(33.3+  9.6+)   000228 595  0.3-  0.8-    000304 595  0.0   1.4-
000227 704  0.6-  0.3+    000228 118  0.3-  0.0     000305 610  0.3+  0.3+
000227 704  0.3-  0.4+    000228 118  0.4-  0.4+    000305 610  0.4+  0.1-
000227 704  0.1+  0.2-    000228 118  0.3-  0.3+    000305 610  0.5+  0.4-
000227 704  0.5+  0.5-    000229 704  0.5-  0.1+    000305 610  0.8+  0.8-
000227 704  0.2+  0.3-    000229 704  0.6-  0.1-    000305 610  0.9+  1.2-
000228 046  0.3-  0.2+    000229 704  0.4-  0.3-    000306 360  0.0   0.3-
000228 046  0.3+  0.0     000229 704  0.4-  0.1-    000306 360  0.2-  0.1+
000228 046  0.1-  0.3-    000229 344  0.5+  0.6-    000306 360  0.2-  0.2-
000228 046  0.2-  0.4+    000229 344  0.2-  0.5-    000306 610 (3.3+  0.7+)
000228 046  0.1+  0.1+    000229 344  0.4+  0.4-    000306 610 (2.3+  0.3+)
000228 118  0.3-  0.2+    000301 858  0.3-  0.3+    000306 610  1.3+  0.0
000228 118  0.2-  0.1+    000301 858  0.3-  0.3+    000306 610  0.2+  0.5-
000228 118  0.3-  0.0     000301 858  0.2-  0.3+    000306 610  0.7-  0.9-
000228 858  0.3-  0.2-    000301 422  0.3+  0.4+    000307 118  0.7-  0.3-
000228 858  0.4-  0.0     000301 422  0.3+  0.1+    000307 118  0.9-  0.9+
000228 858  0.1-  0.0     000301 422  0.0   0.3+    000310 610  1.8+  1.2+
000228 850  0.4+  0.4-    000301 422  0.6+  0.1+    000310 610  0.8+  1.0+
000228 850  0.4+  0.2-    000301 344  0.6+  0.1-    000310 610  0.1-  0.9+
000228 850  0.4+  0.5-    000301 344  0.4+  0.2-    000310 610  0.9-  0.8+
000228 704  0.3-  0.0     000301 344  0.5+  0.0     000310 610  1.9-  0.6+
000228 704  0.0   0.1-    000301 402  0.3-  0.5+    000310 118  0.5+  1.0+
000228 704  0.2-  0.2+    000301 402  0.2+  0.5+    000310 118  0.0   0.3+
000228 704  0.3-  0.1-    000301 402  0.2+  0.5+    000310 118  0.2+  0.2-
000228 850  0.7+  0.1-    000301 402  0.2+  0.4+    000312 670  1.2-  0.5+
000228 704  0.2+  0.2+    000302 850  0.7+  0.4-    000312 670  0.4+  0.1-
000228 704  0.3+  0.1+    000302 850  0.5+  0.0     000312 104  0.1+  0.9+
000228 704  0.1-  0.1-    000302 670  0.4+  0.1+    000312 104  0.9+  0.6-
000228 704  0.4-  0.0     000302 850  0.6+  0.2-    000312 104  0.3+  0.0
000228 704  0.2-  0.0     000302 850  1.0+  0.6-    000312 118  0.3-  0.3+
000228 704  0.4-  0.0     000302 670  1.1+  0.4-    000312 118  0.3-  0.3+
000228 658  0.2-  0.0     000302 651  0.7+  0.0     000312 118  0.7-  0.4+
000228 658  0.6-  0.1+    000302 651  0.7+  0.1+    000313 587  1.2-  1.5+
000228 658  0.2-  0.1+    000302 651  0.7+  0.1+    000322 118  0.3-  0.5-
000228 422  0.0   0.2+    000302 670  0.8+  0.2+    000322 118  0.6-  0.5-
000228 422  0.5-  0.3+    000302 422  0.1-  0.5+    000323 118  0.1-  0.0
000228 422  0.5+  0.4-    000302 422  0.3+  0.2+    000323 118  0.3-  0.2+
000228 413  0.0   0.1-    000302 422  0.0   0.0     000402 704  0.4-  0.2-
000228 413  0.1-  0.0     000302 348  0.4-  1.0-    000402 704  0.0   0.2+
000228 413  0.2-  0.1+    000302 348  0.9-  0.0     000402 704  0.2-  0.5-
000228 104  0.4+  0.1+    000302 344  0.1+  0.4-    000402 704  0.3-  0.5+
000228 104  0.5+  0.3+    000302 344  0.2-  0.6-    000402 704  0.2-  0.5-
000228 106  0.3+  0.5-    000302 344  0.3-  0.5-    000402 118  0.5+  0.4-
000228 104  0.8+  0.4+    000302 557  0.1-  0.1+    000402 118  0.3+  0.9-
000228 104  0.2+  0.1-    000302 557  0.2-  0.3+    000402 046  0.6-  0.4+
000228 106  0.0   0.9+    000302 557  0.1-  0.2+    000402 046  0.2-  0.2+
000228 106  0.1-  0.1+    000302 046  0.3+  0.3+    000402 046  0.1-  0.5+
000228 106  0.0   0.3+    000302 046  0.2+  1.0+    000402 046  0.5-  0.4+
000228 046  0.3-  0.2+    000302 046  0.6-  0.3+    000403 670  0.1-  1.1-
000228 046  0.1-  0.2+    000302 046  0.4-  0.5+    000405 049  0.4+  1.6+
000228 046  0.0   0.2+    000302 046  0.6-  0.4+    000405 049  0.3+  1.6+
000228 046  0.0   0.1+    000304 610  0.5+  1.2-    000405 049  0.5+  1.3+
000228 557  0.3-  0.3-    000304 610  0.1-  0.8-    000422 118  1.0+  0.8-
000228 557  0.2-  0.1-    000304 610  0.5-  0.6-    000422 118  0.5+  0.4-
000228 557  0.1+  0.1+    000304 610  1.0-  0.4-    000428 360  0.0   0.4-
000228 595  0.5-  0.1-    000304 610  1.5-  0.1-    000428 360  0.7+  1.2-
000228 595  0.0   0.4-    000304 595  0.0   1.3-    000428 360  0.3+  0.5-

Gareth V. Williams           (C) Copyright 2000 MPC           M.P.E.C. 2000-L18

Read MPEC 2000-L17 Read MPEC 2000-L19


Our Web policy. Index to the CBAT/MPC/ICQ pages.


Valid HTML 4.01!